Weather History for Mosul, Iraq

Change the Weather History Date:

Tuesday, September 17, 2013

  Actual Average Record
Temperature  
Mean Temperature 82 °F -  
Max Temperature 97 °F - - ()
Min Temperature 68 °F - - ()
Cooling Degree Days 18    
Growing Degree Days 32 (Base 50)    
Moisture  
Dew Point 52 °F    
Average Humidity 32    
Maximum Humidity 50    
Minimum Humidity 10    
Precipitation  
Precipitation 0.00 in - - ()
Sea Level Pressure  
Sea Level Pressure 29.69 in    
Wind  
Wind Speed 3 mph ()    
Max Wind Speed 16 mph    
Max Gust Speed -    
Visibility 4.8 miles    
Events      
T = Trace of Precipitation, MM = Missing Value Source: Averaged Metar Reports

Daily Weather History Graph

Daily Weather History Graph

Search for Another Location

Airport:

Trip Planner

Search our weather history database for the weather conditions in past years. The results will help you decide how hot, cold, wet, or windy it might be!

Date:

Astronomy

Sep. 17, 2013 Rise Set
Actual Time 5:51 AM AST 6:11 PM AST
Civil Twilight 5:25 AM AST 6:37 PM AST
Nautical Twilight 4:55 AM AST 7:07 PM AST
Astronomical Twilight 4:24 AM AST 7:38 PM AST
Moon 4:43 PM AST (9/17) 3:23 AM AST (9/17)
Length of Visible Light 13h 12m
Length of Day
12h 20m
Waxing Gibbous, 94% of the Moon is Illuminated
Sep 17
Waxing Gibbous
Sep 19
Full
Sep 27
Last Quarter
Oct 5
New
Oct 12
First Quarter

Hourly Weather History & Observations

Time (AST) Temp. Heat Index Dew Point Humidity Pressure Visibility Wind Dir Wind Speed Gust Speed Precip Events Conditions
12:00 AM 74 °F - 51 °F 33% 29.68 in 6 mi Calm Calm - -  
12:00 AM 80.6 °F 80.5 °F 55.4 °F 42% 29.68 in - Calm Calm - N/A   Clear
1:00 AM 77.0 °F - 55.4 °F 47% - - Calm Calm - N/A   Clear
2:00 AM 77.0 °F - 57.2 °F 50% 29.68 in - Calm Calm - N/A   Clear
4:00 AM 71.6 °F - 51.8 °F 50% 29.68 in - Calm Calm - N/A   Clear
5:00 AM 73.4 °F - 53.6 °F 50% 29.68 in - Calm Calm - N/A   Clear
6:00 AM 68 °F - 44 °F 31% 29.70 in 6 mi Calm Calm - -  
7:00 AM 71.6 °F - 50.0 °F 46% 29.71 in 5.0 mi NNW 2.3 mph - N/A   Clear
8:00 AM 77.0 °F - 51.8 °F 41% 29.77 in 4.3 mi WNW 4.6 mph - N/A   Clear
9:00 AM 83 °F - 54 °F 26% 29.72 in 5 mi WNW 2.3 mph - -   Widespread Dust
9:00 AM 78.8 °F - 51.8 °F 39% 29.74 in 4.3 mi NW 6.9 mph - N/A   Clear
10:00 AM 84.2 °F 82.8 °F 53.6 °F 35% 29.74 in 4.3 mi NW 6.9 mph - N/A   Clear
12:00 PM 89.6 °F 87.7 °F 55.4 °F 31% 29.71 in 4.3 mi NW 6.9 mph - N/A   Clear
1:00 PM 91.4 °F 89.4 °F 55.4 °F 29% 29.71 in 4.3 mi North 4.6 mph - N/A   Clear
2:00 PM 95.0 °F 92.7 °F 53.6 °F 25% 29.68 in 4.3 mi SSW 9.2 mph - N/A   Clear
3:00 PM 97 °F - 52 °F 13% 29.63 in 5 mi Calm Calm - -   Widespread Dust
3:00 PM 95.0 °F - 51.8 °F 23% 29.68 in 4.3 mi SW 9.2 mph - N/A   Clear
4:00 PM 95.0 °F - 51.8 °F 23% 29.65 in 4.3 mi WSW 9.2 mph - N/A   Clear
5:00 PM 95.0 °F 93.7 °F 57.2 °F 28% 29.65 in 4.3 mi West 4.6 mph - N/A   Clear
6:00 PM 92 °F - 43 °F 10% 29.63 in 6 mi SW 2.3 mph - -  
6:00 PM 93.2 °F - 50.0 °F 23% 29.65 in 5.0 mi SW 16.1 mph - N/A   Clear
7:00 PM 89.6 °F - 48.2 °F 24% 29.65 in 5.0 mi SW 11.5 mph - N/A   Clear
8:00 PM 87.8 °F - 50.0 °F 27% 29.68 in 5.0 mi SW 11.5 mph - N/A   Clear
9:00 PM 82 °F - 47 °F 19% 29.69 in 6 mi WNW 2.2 mph - -  
9:00 PM 86.0 °F - 46.4 °F 25% 29.71 in 5.0 mi SW 13.8 mph - N/A   Clear
10:00 PM 82.4 °F 81.4 °F 53.6 °F 37% 29.71 in 4.3 mi WSW 4.6 mph - N/A   Clear
11:00 PM 78.8 °F - 51.8 °F 39% 29.71 in 4.3 mi Calm Calm - N/A   Clear